contact:dominique.lefevre@mio.osupytheas.fr, maurice.libes@osupytheas.fr, didier.mallarino@osupytheas.fr
Project:EMSO http://www.emso-fr.org/EMSO-France
Depth: 2436.0 m
Title:EMSO Ligure Ouest : Data MII capteur AQUADOPP
Date,Latitude,Longitude,X_East,Y_North,Z_Up,Amplitude_X,Amplitude_Y,Amplitude_Z,Batterie,SoundSpeed,Heading,Pitch,Roll,Pressure,TIS,Speed,Direction
, degrees North, degrees East, m.s-1, m.s-1,m.s-1, 1, 1, 1, Volt, m.s-1, degree, degree, degree, dbar, degree_C, m.s-1, degree
2019-08-24T00:00:41,42.805,6.029,0.019,-0.004,-0.016,104.0,104.0,99.0,13.3,1505.4,326.2,-0.7,1.8,2470.127,13.34,0.019,101.9
2019-08-24T00:03:42,42.805,6.029,0.0,0.013,-0.003,102.0,106.0,100.0,13.4,1505.4,325.3,-0.7,1.8,2470.152,13.34,0.013,0.0
2019-08-24T00:06:43,42.805,6.029,0.02,0.005,-0.014,104.0,106.0,99.0,13.3,1505.4,327.7,-0.7,1.8,2470.169,13.34,0.02,76.0
2019-08-24T00:09:44,42.805,6.029,-0.005,0.018,-0.037,103.0,107.0,100.0,13.4,1505.3,324.2,-0.7,1.8,2470.115,13.33,0.018,344.5
2019-08-24T00:12:45,42.805,6.029,0.037,0.023,-0.022,102.0,104.0,99.0,13.4,1505.3,328.2,-0.7,1.8,2470.142,13.33,0.043,58.1
2019-08-24T00:15:46,42.805,6.029,0.016,-0.001,-0.048,102.0,105.0,99.0,13.3,1505.3,325.4,-0.7,1.8,2470.121,13.33,0.016,93.6
2019-08-24T00:18:47,42.805,6.029,-0.003,0.028,0.006,103.0,107.0,99.0,13.4,1505.3,324.8,-0.7,1.8,2470.125,13.33,0.028,353.9
2019-08-24T00:21:48,42.805,6.029,0.005,0.007,0.003,103.0,104.0,100.0,13.3,1505.3,324.9,-0.7,1.9,2470.128,13.33,0.008,35.5
2019-08-24T00:24:49,42.805,6.029,-0.013,-0.002,-0.052,102.0,106.0,98.0,13.3,1505.3,327.9,-0.7,1.9,2470.144,13.33,0.013,261.3
2019-08-24T00:27:50,42.805,6.029,-0.025,0.007,-0.071,104.0,105.0,99.0,13.3,1505.3,327.3,-0.7,1.8,2470.153,13.33,0.025,285.6
2019-08-24T00:30:51,42.805,6.029,-0.017,0.0,-0.034,101.0,104.0,100.0,13.4,1505.3,323.7,-0.7,1.8,2470.154,13.33,0.017,270.0
2019-08-24T00:33:52,42.805,6.029,0.062,0.007,0.016,104.0,108.0,99.0,13.4,1505.3,327.2,-0.7,1.8,2470.13,13.33,0.062,83.6
2019-08-24T00:36:53,42.805,6.029,0.017,0.02,-0.018,104.0,106.0,100.0,13.3,1505.3,325.9,-0.7,1.8,2470.104,13.33,0.026,40.4
2019-08-24T00:39:54,42.805,6.029,0.022,0.036,-0.003,102.0,106.0,99.0,13.4,1505.3,323.9,-0.7,1.8,2470.129,13.33,0.042,31.4
2019-08-24T00:42:55,42.805,6.029,0.015,0.033,0.003,101.0,107.0,97.0,13.3,1505.3,323.8,-0.7,1.9,2470.198,13.33,0.036,24.4
2019-08-24T00:45:56,42.805,6.029,0.045,-0.002,0.011,102.0,105.0,99.0,13.4,1505.3,328.4,-0.8,1.9,2470.159,13.33,0.045,92.5
2019-08-24T00:48:57,42.805,6.029,0.056,0.017,-0.024,101.0,105.0,98.0,13.4,1505.3,324.7,-0.7,1.8,2470.12,13.33,0.058,73.1
2019-08-24T00:51:58,42.805,6.029,0.054,0.0,0.011,103.0,106.0,98.0,13.4,1505.3,326.2,-0.7,1.8,2470.134,13.33,0.053,90.0
2019-08-24T00:54:59,42.805,6.029,0.034,0.003,0.012,101.0,107.0,98.0,13.4,1505.3,325.4,-0.7,1.8,2470.149,13.33,0.034,85.0
2019-08-24T00:58:00,42.805,6.029,0.032,-0.007,-0.007,100.0,108.0,99.0,13.4,1505.3,328.0,-0.7,1.8,2470.121,13.33,0.032,102.3
2019-08-24T01:01:01,42.805,6.029,0.04,0.01,-0.024,101.0,106.0,99.0,13.4,1505.3,324.1,-0.7,1.8,2470.15,13.33,0.041,76.0
2019-08-24T01:04:02,42.805,6.029,0.023,0.02,-0.019,103.0,105.0,99.0,13.3,1505.3,324.2,-0.7,1.8,2470.115,13.33,0.03,49.0
2019-08-24T01:07:03,42.805,6.029,0.042,0.005,0.013,101.0,106.0,100.0,13.4,1505.3,326.3,-0.7,1.8,2470.111,13.33,0.042,83.2
2019-08-24T01:10:04,42.805,6.029,0.031,0.009,-0.016,103.0,106.0,98.0,13.4,1505.3,327.3,-0.7,1.8,2470.19,13.33,0.032,73.8
2019-08-24T01:13:05,42.805,6.029,0.003,0.024,-0.037,102.0,107.0,99.0,13.4,1505.3,326.3,-0.7,1.8,2470.079,13.33,0.024,7.1
2019-08-24T01:16:06,42.805,6.029,0.044,0.007,0.026,101.0,106.0,99.0,13.4,1505.3,325.3,-0.7,1.8,2470.154,13.33,0.044,81.0
2019-08-24T01:19:07,42.805,6.029,0.044,0.0,0.0,101.0,107.0,99.0,13.4,1505.3,326.9,-0.7,1.9,2470.148,13.33,0.044,90.0
2019-08-24T01:22:08,42.805,6.029,0.043,0.01,-0.001,102.0,105.0,100.0,13.4,1505.3,325.0,-0.7,1.8,2470.093,13.33,0.044,76.9
2019-08-24T01:25:09,42.805,6.029,0.03,0.018,-0.009,102.0,106.0,100.0,13.4,1505.3,327.7,-0.7,1.8,2470.081,13.33,0.034,59.0
2019-08-24T01:28:10,42.805,6.029,0.026,-0.013,-0.017,101.0,107.0,99.0,13.4,1505.3,327.2,-0.7,1.9,2470.144,13.33,0.029,116.6
2019-08-24T01:31:11,42.805,6.029,0.044,0.0,0.015,102.0,105.0,100.0,13.4,1505.3,324.8,-0.7,1.8,2470.091,13.33,0.044,90.0
2019-08-24T01:34:12,42.805,6.029,0.036,-0.012,-0.03,103.0,107.0,99.0,13.4,1505.3,324.3,-0.7,1.8,2470.133,13.33,0.037,108.4
2019-08-24T01:37:13,42.805,6.029,0.027,0.018,0.015,103.0,107.0,100.0,13.4,1505.3,326.3,-0.7,1.8,2470.115,13.33,0.032,56.3
2019-08-24T01:40:14,42.805,6.029,0.056,0.0,0.033,102.0,106.0,101.0,13.4,1505.3,327.6,-0.7,1.8,2470.144,13.33,0.056,90.0
2019-08-24T01:43:15,42.805,6.029,0.017,0.013,-0.014,103.0,107.0,100.0,13.4,1505.3,326.5,-0.7,1.8,2470.117,13.33,0.021,52.6
2019-08-24T01:46:16,42.805,6.029,0.034,0.014,-0.026,103.0,109.0,100.0,13.4,1505.3,326.7,-0.7,1.9,2470.116,13.33,0.036,67.6
2019-08-24T01:49:17,42.805,6.029,0.073,0.009,0.037,102.0,106.0,99.0,13.3,1505.3,325.1,-0.7,1.9,2470.11,13.33,0.073,83.0
2019-08-24T01:52:18,42.805,6.029,0.044,0.018,0.026,103.0,106.0,101.0,13.3,1505.3,323.2,-0.7,1.8,2470.106,13.33,0.047,67.8
2019-08-24T01:55:19,42.805,6.029,0.002,0.003,-0.04,102.0,108.0,99.0,13.4,1505.3,324.3,-0.7,1.8,2470.137,13.33,0.003,33.7
2019-08-24T01:58:20,42.805,6.029,-0.032,0.001,-0.063,102.0,105.0,100.0,13.4,1505.3,323.2,-0.7,1.9,2470.134,13.33,0.032,271.8
2019-08-24T02:01:21,42.805,6.029,0.035,0.018,0.01,104.0,106.0,99.0,13.3,1505.3,324.1,-0.7,1.8,2470.091,13.33,0.039,62.8
2019-08-24T02:04:22,42.805,6.029,0.001,-0.014,-0.006,102.0,107.0,100.0,13.4,1505.3,328.2,-0.7,1.8,2470.17,13.33,0.014,175.9
2019-08-24T02:07:23,42.805,6.029,0.032,-0.01,-0.04,105.0,106.0,100.0,13.4,1505.3,324.7,-0.7,1.8,2470.128,13.33,0.033,107.4
2019-08-24T02:10:24,42.805,6.029,0.03,-0.004,-0.028,103.0,107.0,100.0,13.4,1505.3,324.5,-0.7,1.8,2470.084,13.33,0.03,97.6
2019-08-24T02:13:25,42.805,6.029,0.039,0.012,0.049,104.0,106.0,99.0,13.4,1505.3,323.6,-0.7,1.8,2470.116,13.33,0.04,72.9
2019-08-24T02:16:26,42.805,6.029,0.015,0.009,-0.004,102.0,107.0,100.0,13.4,1505.3,326.2,-0.8,1.8,2470.084,13.33,0.017,59.0
2019-08-24T02:19:27,42.805,6.029,0.029,-0.002,-0.04,103.0,106.0,100.0,13.4,1505.3,326.4,-0.7,1.8,2470.117,13.33,0.029,93.9
2019-08-24T02:22:28,42.805,6.029,0.067,-0.005,0.01,102.0,108.0,99.0,13.4,1505.3,325.4,-0.8,1.8,2470.145,13.33,0.067,94.3
2019-08-24T02:25:29,42.805,6.029,0.011,-0.002,-0.02,103.0,107.0,99.0,13.4,1505.3,324.5,-0.7,1.9,2470.082,13.33,0.011,100.3
2019-08-24T02:28:30,42.805,6.029,0.039,0.01,0.031,102.0,106.0,100.0,13.4,1505.3,328.5,-0.7,1.8,2470.127,13.33,0.04,75.6
2019-08-24T02:31:31,42.805,6.029,0.049,0.004,0.026,104.0,107.0,99.0,13.4,1505.3,325.9,-0.7,1.8,2470.07,13.33,0.049,85.3
2019-08-24T02:34:32,42.805,6.029,0.028,0.002,-0.017,103.0,105.0,101.0,13.4,1505.3,326.0,-0.7,1.8,2470.117,13.33,0.028,85.9
2019-08-24T02:37:33,42.805,6.029,0.034,-0.002,0.002,102.0,109.0,101.0,13.4,1505.3,326.2,-0.7,1.8,2470.088,13.33,0.034,93.4
2019-08-24T02:40:34,42.805,6.029,0.032,0.013,0.019,104.0,107.0,99.0,13.4,1505.3,323.0,-0.7,1.8,2470.093,13.33,0.034,67.9
2019-08-24T02:43:35,42.805,6.029,0.03,0.001,-0.008,102.0,106.0,100.0,13.4,1505.3,324.4,-0.7,1.8,2470.116,13.33,0.03,88.1
2019-08-24T02:46:36,42.805,6.029,0.032,0.008,-0.028,102.0,107.0,101.0,13.4,1505.3,326.8,-0.7,1.8,2470.093,13.33,0.032,76.0
2019-08-24T02:49:37,42.805,6.029,-0.007,-0.007,-0.058,106.0,106.0,99.0,13.4,1505.3,325.8,-0.7,1.9,2470.107,13.33,0.009,225.0
2019-08-24T02:52:38,42.805,6.029,0.019,-0.007,-0.014,105.0,107.0,99.0,13.3,1505.3,327.6,-0.7,1.9,2470.069,13.33,0.02,110.2
2019-08-24T02:55:39,42.805,6.029,0.02,-0.008,-0.016,103.0,106.0,101.0,13.4,1505.3,327.9,-0.7,1.8,2470.105,13.33,0.021,111.8
2019-08-24T02:58:40,42.805,6.029,0.013,0.01,-0.005,104.0,107.0,99.0,13.3,1505.3,325.8,-0.7,1.8,2470.099,13.33,0.016,52.4
2019-08-24T03:01:41,42.805,6.029,0.023,-0.007,-0.012,103.0,106.0,100.0,13.4,1505.3,324.4,-0.7,1.9,2470.1,13.33,0.024,106.9
2019-08-24T03:04:42,42.805,6.029,0.039,0.026,0.017,102.0,107.0,99.0,13.4,1505.3,324.5,-0.7,1.9,2470.114,13.33,0.046,56.3
2019-08-24T03:07:43,42.805,6.029,0.057,0.019,0.017,103.0,107.0,98.0,13.4,1505.3,324.4,-0.7,1.8,2470.089,13.33,0.06,71.6
2019-08-24T03:10:44,42.805,6.029,0.056,0.005,-0.019,103.0,106.0,100.0,13.4,1505.3,324.1,-0.7,1.8,2470.081,13.33,0.056,84.9
2019-08-24T03:13:45,42.805,6.029,0.009,0.005,-0.04,103.0,107.0,100.0,13.4,1505.3,327.4,-0.7,1.9,2470.116,13.33,0.01,60.9
2019-08-24T03:16:46,42.805,6.029,0.032,0.0,-0.023,103.0,107.0,99.0,13.4,1505.3,326.4,-0.7,1.9,2470.1,13.33,0.032,90.0
2019-08-24T03:19:47,42.805,6.029,0.02,-0.005,0.006,104.0,105.0,99.0,13.4,1505.3,327.6,-0.7,1.8,2470.063,13.33,0.02,104.0
2019-08-24T03:22:48,42.805,6.029,0.044,-0.001,0.002,103.0,107.0,100.0,13.4,1505.3,326.3,-0.7,1.9,2470.139,13.33,0.044,91.3
2019-08-24T03:25:49,42.805,6.029,0.028,0.008,0.034,104.0,107.0,101.0,13.3,1505.3,327.1,-0.7,1.8,2470.102,13.33,0.029,74.1
2019-08-24T03:28:50,42.805,6.029,0.053,-0.011,0.008,105.0,105.0,100.0,13.4,1505.3,326.8,-0.7,1.9,2470.083,13.33,0.054,101.7
2019-08-24T03:31:51,42.805,6.029,0.084,0.002,0.049,105.0,106.0,100.0,13.4,1505.3,327.2,-0.7,1.8,2470.103,13.33,0.084,88.6
2019-08-24T03:34:52,42.805,6.029,0.049,-0.007,0.0,103.0,106.0,99.0,13.4,1505.3,326.9,-0.7,1.8,2470.124,13.33,0.049,98.1
2019-08-24T03:37:53,42.805,6.029,0.046,0.008,0.039,101.0,106.0,99.0,13.3,1505.3,326.4,-0.7,1.9,2470.072,13.33,0.046,80.1
2019-08-24T03:40:54,42.805,6.029,0.026,-0.005,-0.023,102.0,108.0,100.0,13.4,1505.3,324.6,-0.7,1.8,2470.068,13.33,0.026,100.9
2019-08-24T03:43:55,42.805,6.029,0.035,0.006,0.025,107.0,106.0,99.0,13.3,1505.3,324.7,-0.7,1.8,2470.077,13.33,0.035,80.3
2019-08-24T03:46:56,42.805,6.029,0.056,-0.005,0.033,104.0,105.0,100.0,13.4,1505.3,327.9,-0.7,1.8,2470.094,13.33,0.056,95.1
2019-08-24T03:49:57,42.805,6.029,0.03,0.005,0.013,102.0,105.0,100.0,13.4,1505.3,327.3,-0.8,1.8,2470.062,13.33,0.03,80.5
2019-08-24T03:52:58,42.805,6.029,0.038,0.011,0.009,102.0,105.0,100.0,13.4,1505.3,323.3,-0.7,1.9,2470.099,13.33,0.039,73.9
2019-08-24T03:55:59,42.805,6.029,0.039,0.004,-0.006,103.0,105.0,99.0,13.4,1505.3,326.4,-0.7,1.8,2470.11,13.33,0.039,84.1
2019-08-24T03:59:00,42.805,6.029,0.065,-0.004,0.012,103.0,105.0,100.0,13.4,1505.3,327.9,-0.7,1.9,2470.074,13.33,0.065,93.5
2019-08-24T04:02:01,42.805,6.029,0.053,-0.002,0.014,103.0,106.0,99.0,13.4,1505.3,326.1,-0.7,1.8,2470.108,13.33,0.053,92.2
2019-08-24T04:05:02,42.805,6.029,0.068,0.006,0.042,102.0,107.0,99.0,13.4,1505.3,324.4,-0.7,1.8,2470.099,13.33,0.068,85.0
2019-08-24T04:08:03,42.805,6.029,0.032,-0.003,-0.003,103.0,107.0,99.0,13.4,1505.3,326.5,-0.7,1.8,2470.093,13.33,0.032,95.4
2019-08-24T04:11:04,42.805,6.029,0.043,-0.003,0.046,102.0,106.0,101.0,13.3,1505.3,324.2,-0.7,1.8,2470.076,13.33,0.043,94.0
2019-08-24T04:14:05,42.805,6.029,-0.032,0.006,-0.035,102.0,106.0,100.0,13.3,1505.3,326.6,-0.7,1.8,2470.089,13.33,0.032,280.6
2019-08-24T04:17:06,42.805,6.029,0.036,-0.002,-0.014,104.0,106.0,100.0,13.4,1505.3,325.5,-0.7,1.8,2470.002,13.33,0.036,93.2
2019-08-24T04:20:07,42.805,6.029,-0.009,-0.011,-0.058,103.0,105.0,101.0,13.4,1505.3,326.5,-0.7,1.8,2470.081,13.33,0.014,219.3
2019-08-24T04:23:08,42.805,6.029,-0.001,-0.001,-0.019,105.0,105.0,100.0,13.4,1505.3,325.1,-0.7,1.9,2470.066,13.33,0.001,225.0
2019-08-24T04:26:09,42.805,6.029,-0.052,-0.013,-0.06,103.0,106.0,100.0,13.3,1505.3,327.8,-0.7,1.8,2470.049,13.33,0.053,256.0
2019-08-24T04:29:10,42.805,6.029,-0.06,-0.02,-0.08,104.0,106.0,100.0,13.4,1505.3,326.5,-0.7,1.8,2470.086,13.33,0.063,251.6
2019-08-24T04:32:11,42.805,6.029,-0.03,-0.015,-0.054,103.0,105.0,99.0,13.4,1505.3,328.5,-0.7,1.9,2470.043,13.33,0.033,243.4
2019-08-24T04:35:12,42.805,6.029,-0.021,-0.001,-0.061,101.0,106.0,100.0,13.4,1505.3,326.4,-0.7,1.8,2470.108,13.33,0.021,267.3
2019-08-24T04:38:13,42.805,6.029,-0.023,0.0,-0.065,103.0,105.0,100.0,13.3,1505.3,327.5,-0.7,1.8,2470.076,13.33,0.023,270.0
2019-08-24T04:41:14,42.805,6.029,0.031,0.01,0.003,104.0,106.0,100.0,13.4,1505.3,324.6,-0.7,1.8,2470.105,13.33,0.032,72.1
2019-08-24T04:44:15,42.805,6.029,0.064,0.006,0.043,103.0,105.0,101.0,13.4,1505.3,325.3,-0.7,1.8,2470.074,13.33,0.064,84.6
2019-08-24T04:47:16,42.805,6.029,0.021,-0.008,0.009,105.0,106.0,100.0,13.4,1505.4,324.3,-0.7,1.9,2470.063,13.34,0.022,110.9
2019-08-24T04:50:17,42.805,6.029,0.021,0.03,-0.018,105.0,105.0,99.0,13.3,1505.4,326.0,-0.7,1.8,2470.057,13.34,0.036,35.0
2019-08-24T04:53:18,42.805,6.029,0.038,0.008,-0.011,102.0,104.0,99.0,13.4,1505.4,324.2,-0.7,1.8,2470.069,13.34,0.038,78.1
2019-08-24T04:56:19,42.805,6.029,0.068,0.0,-0.005,103.0,106.0,100.0,13.4,1505.4,324.5,-0.7,1.8,2470.104,13.34,0.067,90.0
2019-08-24T04:59:20,42.805,6.029,0.059,0.011,0.043,104.0,105.0,101.0,13.4,1505.4,323.2,-0.7,1.8,2470.035,13.34,0.06,79.4
2019-08-24T05:02:21,42.805,6.029,0.044,0.0,-0.036,101.0,105.0,99.0,13.3,1505.4,327.3,-0.7,1.8,2470.04,13.34,0.044,90.0
2019-08-24T05:05:22,42.805,6.029,0.027,-0.01,0.023,103.0,105.0,101.0,13.3,1505.3,326.8,-0.7,1.8,2470.077,13.33,0.028,110.3
2019-08-24T05:08:23,42.805,6.029,0.042,-0.001,0.018,103.0,105.0,100.0,13.4,1505.3,326.7,-0.7,1.8,2470.076,13.33,0.042,91.4
2019-08-24T05:11:24,42.805,6.029,0.051,0.008,0.011,102.0,104.0,100.0,13.4,1505.3,324.3,-0.7,1.8,2470.034,13.33,0.051,81.1
2019-08-24T05:14:25,42.805,6.029,0.058,-0.002,0.031,102.0,106.0,101.0,13.3,1505.3,326.5,-0.7,1.8,2470.056,13.33,0.058,92.0
2019-08-24T05:17:26,42.805,6.029,0.041,0.004,-0.02,105.0,108.0,99.0,13.4,1505.3,327.4,-0.7,1.8,2470.017,13.33,0.041,84.4
2019-08-24T05:20:27,42.805,6.029,0.084,0.013,0.038,102.0,105.0,100.0,13.4,1505.3,324.3,-0.7,1.9,2470.029,13.33,0.084,81.2
2019-08-24T05:23:28,42.805,6.029,0.083,0.001,0.026,104.0,107.0,99.0,13.4,1505.3,324.2,-0.7,1.8,2470.02,13.33,0.083,89.3
2019-08-24T05:26:29,42.805,6.029,0.054,0.0,-0.025,103.0,107.0,99.0,13.3,1505.3,328.2,-0.7,1.8,2470.072,13.33,0.053,90.0
2019-08-24T05:29:30,42.805,6.029,0.031,-0.002,0.016,103.0,106.0,100.0,13.3,1505.4,326.5,-0.7,1.9,2470.015,13.34,0.031,93.7
2019-08-24T05:32:31,42.805,6.029,0.094,0.036,0.053,103.0,105.0,100.0,13.4,1505.4,323.2,-0.7,1.8,2470.027,13.34,0.1,69.0
2019-08-24T05:35:32,42.805,6.029,0.027,0.0,0.032,103.0,105.0,100.0,13.3,1505.3,326.3,-0.7,1.8,2470.031,13.33,0.026,90.0
2019-08-24T05:38:33,42.805,6.029,0.004,0.004,-0.045,102.0,105.0,99.0,13.4,1505.3,324.6,-0.7,1.8,2470.093,13.33,0.005,45.0
2019-08-24T05:41:34,42.805,6.029,0.06,0.012,-0.025,104.0,105.0,98.0,13.3,1505.3,325.6,-0.7,1.8,2470.031,13.33,0.061,78.7
2019-08-24T05:44:35,42.805,6.029,0.05,0.009,0.016,103.0,106.0,98.0,13.3,1505.3,324.6,-0.7,1.8,2470.024,13.33,0.05,79.8
2019-08-24T05:47:36,42.805,6.029,0.029,-0.012,0.006,104.0,104.0,99.0,13.4,1505.3,326.4,-0.7,1.8,2470.023,13.33,0.031,112.5
2019-08-24T05:50:37,42.805,6.029,0.064,0.007,0.036,101.0,104.0,99.0,13.3,1505.3,324.1,-0.7,1.8,2470.067,13.33,0.064,83.8
2019-08-24T05:53:38,42.805,6.029,0.066,0.016,0.042,103.0,104.0,99.0,13.3,1505.3,324.6,-0.7,1.8,2470.075,13.33,0.067,76.4
2019-08-24T05:56:39,42.805,6.029,0.039,-0.015,0.012,102.0,105.0,103.0,13.4,1505.3,327.2,-0.7,1.8,2470.069,13.33,0.041,111.0
2019-08-24T05:59:40,42.805,6.029,0.039,0.014,0.027,103.0,105.0,100.0,13.3,1505.4,325.3,-0.7,1.9,2470.035,13.34,0.041,70.3
2019-08-24T06:02:41,42.805,6.029,0.06,-0.008,0.044,103.0,105.0,101.0,13.4,1505.4,323.9,-0.7,1.8,2470.05,13.34,0.06,97.6
2019-08-24T06:05:42,42.805,6.029,0.074,-0.001,0.012,103.0,107.0,99.0,13.3,1505.4,323.1,-0.7,1.9,2470.082,13.34,0.074,90.8
2019-08-24T06:08:43,42.805,6.029,0.023,0.003,-0.008,104.0,106.0,101.0,13.3,1505.4,325.6,-0.7,1.8,2470.071,13.34,0.023,82.6
2019-08-24T06:11:44,42.805,6.029,0.06,0.013,0.048,104.0,105.0,100.0,13.4,1505.3,325.7,-0.7,1.8,2470.018,13.33,0.061,77.8
2019-08-24T06:14:45,42.805,6.029,0.051,0.003,-0.003,105.0,105.0,100.0,13.4,1505.4,325.6,-0.7,1.9,2470.03,13.34,0.051,86.6
2019-08-24T06:17:46,42.805,6.029,0.069,-0.001,0.036,104.0,106.0,101.0,13.3,1505.4,326.5,-0.7,1.8,2470.053,13.34,0.069,90.8
2019-08-24T06:20:47,42.805,6.029,0.034,-0.014,0.005,102.0,105.0,101.0,13.4,1505.3,327.1,-0.7,1.8,2470.057,13.33,0.036,112.4
2019-08-24T06:23:48,42.805,6.029,0.031,-0.007,0.0,105.0,104.0,100.0,13.3,1505.3,324.8,-0.7,1.8,2470.037,13.33,0.031,102.7
2019-08-24T06:26:49,42.805,6.029,0.044,0.004,0.031,103.0,105.0,100.0,13.4,1505.3,324.6,-0.7,1.8,2470.062,13.33,0.044,84.8
2019-08-24T06:29:50,42.805,6.029,0.022,0.006,0.005,103.0,106.0,100.0,13.4,1505.3,324.6,-0.7,1.8,2470.03,13.33,0.022,74.7
2019-08-24T06:32:51,42.805,6.029,0.027,0.003,-0.002,103.0,106.0,101.0,13.4,1505.3,325.3,-0.8,1.9,2470.026,13.33,0.027,83.7
2019-08-24T06:35:52,42.805,6.029,0.032,-0.005,0.005,104.0,107.0,100.0,13.3,1505.4,325.9,-0.7,1.8,2470.051,13.34,0.032,98.9
2019-08-24T06:38:53,42.805,6.029,0.012,0.0,-0.013,107.0,106.0,102.0,13.4,1505.4,326.5,-0.7,1.8,2470.041,13.34,0.012,90.0
2019-08-24T06:41:54,42.805,6.029,0.058,0.012,0.011,103.0,106.0,102.0,13.4,1505.4,325.3,-0.7,1.8,2470.035,13.34,0.059,78.3
2019-08-24T06:44:55,42.805,6.029,0.03,0.007,-0.038,104.0,106.0,101.0,13.3,1505.3,324.4,-0.7,1.9,2470.023,13.33,0.03,76.9
2019-08-24T06:47:56,42.805,6.029,0.047,0.005,0.019,105.0,107.0,101.0,13.3,1505.3,324.8,-0.7,1.8,2470.038,13.33,0.047,83.9
2019-08-24T06:50:57,42.805,6.029,0.0,-0.002,-0.039,104.0,106.0,100.0,13.4,1505.3,326.3,-0.7,1.8,2470.013,13.33,0.002,180.0
2019-08-24T06:53:58,42.805,6.029,0.031,0.011,0.002,105.0,106.0,101.0,13.4,1505.3,325.4,-0.7,1.8,2470.005,13.33,0.032,70.5
2019-08-24T06:56:59,42.805,6.029,0.038,0.003,0.015,104.0,106.0,99.0,13.4,1505.3,324.6,-0.7,1.8,2470.007,13.33,0.038,85.5
2019-08-24T07:00:00,42.805,6.029,0.056,0.001,0.018,109.0,105.0,100.0,13.4,1505.3,325.4,-0.7,1.9,2470.054,13.33,0.056,89.0
2019-08-24T07:03:01,42.805,6.029,0.049,0.001,0.019,103.0,104.0,101.0,13.4,1505.3,325.4,-0.7,1.9,2470.011,13.33,0.049,88.8
2019-08-24T07:06:02,42.805,6.029,-0.006,0.0,-0.021,104.0,105.0,101.0,13.4,1505.3,326.4,-0.7,1.8,2470.047,13.33,0.006,270.0
2019-08-24T07:09:03,42.805,6.029,0.017,0.0,-0.016,106.0,105.0,100.0,13.4,1505.3,328.0,-0.7,1.8,2470.007,13.33,0.017,90.0
2019-08-24T07:12:04,42.805,6.029,0.006,-0.035,-0.021,103.0,106.0,100.0,13.4,1505.3,325.2,-0.7,1.9,2470.071,13.33,0.035,170.3
2019-08-24T07:15:05,42.805,6.029,0.028,-0.013,-0.006,104.0,106.0,100.0,13.4,1505.3,328.3,-0.7,1.8,2470.034,13.33,0.03,114.9
2019-08-24T07:18:06,42.805,6.029,0.043,-0.011,-0.001,103.0,105.0,101.0,13.3,1505.3,326.6,-0.8,1.9,2470.036,13.33,0.044,104.3
2019-08-24T07:21:07,42.805,6.029,-0.002,0.0,-0.001,107.0,106.0,102.0,13.3,1505.3,328.4,-0.7,1.9,2470.062,13.33,0.002,270.0
2019-08-24T07:24:08,42.805,6.029,-0.022,0.007,-0.023,103.0,107.0,101.0,13.3,1505.3,324.2,-0.7,1.8,2470.022,13.33,0.023,287.6
2019-08-24T07:27:09,42.805,6.029,0.016,0.001,0.003,106.0,107.0,100.0,13.4,1505.3,324.6,-0.7,1.8,2470.086,13.33,0.016,86.4
2019-08-24T07:30:10,42.805,6.029,-0.003,0.004,-0.018,105.0,105.0,100.0,13.3,1505.3,325.0,-0.8,1.9,2470.032,13.33,0.005,323.1
2019-08-24T07:33:11,42.805,6.029,0.017,-0.001,-0.022,102.0,106.0,100.0,13.4,1505.3,324.4,-0.7,1.8,2470.05,13.33,0.017,93.4
2019-08-24T07:36:12,42.805,6.029,0.021,0.003,0.0,106.0,104.0,101.0,13.4,1505.3,326.9,-0.8,1.8,2470.033,13.33,0.021,81.9
2019-08-24T07:39:13,42.805,6.029,0.02,-0.004,-0.015,103.0,107.0,100.0,13.4,1505.3,324.9,-0.7,1.8,2470.063,13.33,0.02,101.3
2019-08-24T07:42:14,42.805,6.029,0.014,0.01,0.015,104.0,107.0,101.0,13.4,1505.3,324.7,-0.7,1.8,2470.024,13.33,0.017,54.5
2019-08-24T07:45:15,42.805,6.029,-0.014,0.002,-0.019,105.0,106.0,101.0,13.4,1505.3,328.5,-0.7,1.9,2470.051,13.33,0.014,278.1
2019-08-24T07:48:16,42.805,6.029,-0.008,-0.011,-0.039,105.0,106.0,101.0,13.3,1505.3,327.4,-0.7,1.8,2470.059,13.33,0.013,216.0
2019-08-24T07:51:17,42.805,6.029,-0.008,-0.012,0.017,104.0,104.0,102.0,13.4,1505.3,326.6,-0.7,1.8,2470.014,13.33,0.014,213.7
2019-08-24T07:54:18,42.805,6.029,-0.009,-0.009,-0.025,107.0,106.0,99.0,13.4,1505.3,324.6,-0.7,1.8,2470.05,13.33,0.012,225.0
2019-08-24T07:57:19,42.805,6.029,-0.003,0.005,-0.01,104.0,106.0,100.0,13.3,1505.3,326.2,-0.7,1.8,2470.047,13.33,0.005,329.0
2019-08-24T08:00:20,42.805,6.029,0.012,-0.039,-0.006,104.0,106.0,101.0,13.4,1505.3,324.7,-0.7,1.8,2470.035,13.33,0.04,162.9
2019-08-24T08:03:21,42.805,6.029,0.036,0.0,0.001,104.0,106.0,100.0,13.4,1505.3,324.0,-0.7,1.8,2470.018,13.33,0.036,90.0
2019-08-24T08:06:22,42.805,6.029,0.02,0.0,0.001,104.0,106.0,101.0,13.3,1505.3,324.0,-0.7,1.8,2470.04,13.33,0.02,90.0
2019-08-24T08:09:23,42.805,6.029,-0.004,-0.011,-0.01,105.0,105.0,102.0,13.3,1505.3,323.8,-0.7,1.9,2470.019,13.33,0.011,200.0
2019-08-24T08:12:24,42.805,6.029,0.03,-0.016,0.016,102.0,107.0,101.0,13.4,1505.3,324.6,-0.7,1.9,2470.025,13.33,0.034,118.1
2019-08-24T08:15:25,42.805,6.029,0.0,0.008,-0.023,103.0,107.0,101.0,13.3,1505.3,324.9,-0.7,1.8,2470.05,13.33,0.008,0.0
2019-08-24T08:18:26,42.805,6.029,-0.007,-0.011,-0.032,104.0,106.0,99.0,13.4,1505.3,324.7,-0.7,1.8,2470.044,13.33,0.013,212.5
2019-08-24T08:21:27,42.805,6.029,-0.022,-0.013,-0.061,105.0,105.0,100.0,13.3,1505.3,323.6,-0.7,1.8,2470.029,13.33,0.025,239.4
2019-08-24T08:24:28,42.805,6.029,-0.017,0.0,-0.047,104.0,106.0,100.0,13.4,1505.3,323.0,-0.7,1.8,2470.058,13.33,0.017,270.0
2019-08-24T08:27:29,42.805,6.029,-0.029,-0.016,-0.057,102.0,106.0,101.0,13.4,1505.4,322.9,-0.7,1.8,2470.019,13.34,0.033,241.1
2019-08-24T08:30:30,42.805,6.029,-0.028,0.002,-0.028,104.0,108.0,100.0,13.3,1505.4,327.6,-0.7,1.9,2470.006,13.34,0.028,274.1
2019-08-24T08:33:31,42.805,6.029,-0.023,0.001,-0.033,105.0,107.0,100.0,13.4,1505.4,326.2,-0.7,1.9,2470.033,13.34,0.023,272.5
2019-08-24T08:36:32,42.805,6.029,-0.038,-0.011,-0.067,104.0,107.0,99.0,13.4,1505.4,324.9,-0.7,1.8,2470.034,13.34,0.039,253.9
2019-08-24T08:39:33,42.805,6.029,0.004,0.0,-0.029,104.0,109.0,102.0,13.4,1505.4,325.7,-0.7,1.9,2470.03,13.34,0.004,90.0
2019-08-24T08:42:34,42.805,6.029,-0.01,0.006,-0.021,105.0,107.0,102.0,13.3,1505.4,324.4,-0.7,1.9,2470.062,13.34,0.011,301.0
2019-08-24T08:45:35,42.805,6.029,0.022,0.019,-0.009,105.0,108.0,100.0,13.4,1505.4,325.9,-0.7,1.8,2470.035,13.34,0.029,49.2
2019-08-24T08:48:36,42.805,6.029,0.006,0.032,0.006,103.0,109.0,100.0,13.3,1505.4,325.9,-0.7,1.8,2470.03,13.34,0.032,10.6
2019-08-24T08:51:37,42.805,6.029,-0.003,-0.011,-0.041,104.0,111.0,100.0,13.4,1505.4,326.6,-0.7,1.8,2470.071,13.34,0.011,195.3
2019-08-24T08:54:38,42.805,6.029,-0.013,-0.004,-0.004,101.0,110.0,100.0,13.3,1505.4,327.0,-0.7,1.8,2470.049,13.34,0.013,252.9
2019-08-24T08:57:39,42.805,6.029,0.001,-0.001,0.02,104.0,109.0,100.0,13.4,1505.4,326.1,-0.7,1.8,2470.046,13.34,0.001,135.0
2019-08-24T09:00:40,42.805,6.029,0.001,0.0,-0.027,103.0,109.0,102.0,13.4,1505.4,326.1,-0.7,1.9,2470.076,13.34,0.001,90.0
2019-08-24T09:03:41,42.805,6.029,-0.006,-0.004,-0.029,102.0,110.0,101.0,13.3,1505.4,325.8,-0.7,1.8,2470.019,13.34,0.007,236.3
2019-08-24T09:06:42,42.805,6.029,0.023,0.032,0.01,104.0,109.0,102.0,13.3,1505.4,326.1,-0.7,1.8,2470.073,13.34,0.039,35.7
2019-08-24T09:09:43,42.805,6.029,0.001,0.005,0.018,104.0,109.0,99.0,13.3,1505.4,327.2,-0.7,1.9,2469.985,13.34,0.005,11.3
2019-08-24T09:12:44,42.805,6.029,-0.038,0.016,-0.05,102.0,109.0,99.0,13.4,1505.4,326.4,-0.7,1.8,2470.062,13.34,0.041,292.8
2019-08-24T09:15:45,42.805,6.029,-0.046,0.017,-0.033,103.0,109.0,100.0,13.4,1505.4,328.1,-0.7,1.8,2470.057,13.34,0.049,290.3
2019-08-24T09:18:46,42.805,6.029,-0.023,0.016,-0.062,102.0,111.0,99.0,13.4,1505.4,325.2,-0.7,1.9,2470.027,13.34,0.028,304.8
2019-08-24T09:21:47,42.805,6.029,-0.058,0.025,-0.038,103.0,107.0,100.0,13.3,1505.4,323.4,-0.7,1.8,2470.005,13.34,0.063,293.3
2019-08-24T09:24:48,42.805,6.029,-0.029,0.007,-0.003,103.0,110.0,100.0,13.4,1505.4,326.8,-0.7,1.8,2470.052,13.34,0.029,283.6
2019-08-24T09:27:49,42.805,6.029,-0.021,0.002,-0.043,104.0,108.0,100.0,13.4,1505.4,324.3,-0.7,1.8,2470.055,13.34,0.021,275.4
2019-08-24T09:30:50,42.805,6.029,-0.016,0.006,-0.032,105.0,109.0,102.0,13.4,1505.4,327.5,-0.7,1.8,2470.067,13.34,0.017,290.6
2019-08-24T09:33:51,42.805,6.029,-0.048,0.009,-0.078,103.0,109.0,99.0,13.4,1505.4,325.2,-0.8,1.8,2470.007,13.34,0.048,280.6
2019-08-24T09:36:52,42.805,6.029,-0.036,0.017,-0.069,103.0,107.0,99.0,13.4,1505.4,325.2,-0.7,1.8,2470.063,13.34,0.039,295.3